Ellensburg, WA
on Monday, January 21, 2013

Monday
Previous Day Next Day
Daily Summary
 ActualAverage (KYKM)Record (KYKM)
Temperature
Mean Temperature °F 32°F  
Max Temperature 21°F 40°F 62°F (1968)
Min Temperature 19°F 24°F -10°F (1957)
Degree Days
Heating Degree Days 45 33  
Month to date heating degree days 735  
Since 1 July heating degree days 3398  
Cooling Degree Days 0 0  
Month to date cooling degree days 0  
Year to date cooling degree days 0  
Moisture
Dew Point 17°F   
Average Humidity 85    
Maximum Humidity 93    
Minimum Humidity 80    
Precipitation
Precipitation 0.00 in 0.04 in 0.23 in (1954)
Month to date precipitation 0.83  
Year to date precipitation 0.83  
Snow
Snow 0.00 in 0.10 in 4.00 in (1954)
Month to date snowfall 4.1  
Year to date snowfall 4.1  
Since 1 July snowfall 17.1  
Snow Depth in   
Wind
Wind Speed 2 mph   
Max Wind Speed 6 mph   
Max Gust Speed mph   
Visibility 3 miles   
Events Fog   

Key: T is trace of precipitation, MM is missing value
Source: NWS Daily Summary
Time(PST)TemperatureDew PointHumidity Pressure Visibility Wind DirectionWind SpeedGust SpeedPrecipitationEvents Conditions
1:53 AM 21.0°F 17.1°F 85% 30.45 in - Calm Calm - N/A   Overcast
2:53 AM 21.0°F 16.0°F 81% 30.45 in - West 5.8 mph - N/A   Overcast
3:53 AM 19.0°F 15.1°F 85% 30.45 in - NW 3.5 mph - N/A   Overcast
4:53 AM 19.0°F 15.1°F 85% 30.45 in - West 4.6 mph - N/A   Unknown
5:09 AM 19.4°F 15.8°F 86% 30.37 in - NW 4.6 mph - N/A   Overcast
5:53 AM 19.9°F 16.0°F 85% 30.44 in - Calm Calm - N/A   Overcast
6:53 AM 19.9°F 17.1°F 89% 30.43 in - Calm Calm - N/A   Overcast
7:53 AM 21.0°F 17.1°F 85% 30.42 in - Calm Calm - N/A   Overcast
8:05 AM 19.4°F 15.8°F 86% 30.34 in 0.5 miles Calm Calm - N/A Fog Light Freezing Fog
8:32 AM 19.4°F 15.8°F 86% 30.35 in 1.0 miles Calm Calm - N/A   Overcast
8:53 AM 19.9°F 17.1°F 89% 30.43 in 1.0 miles Calm Calm - N/A   Overcast
9:06 AM 19.4°F 15.8°F 86% 30.35 in 0.8 miles West 3.5 mph - N/A   Overcast
9:14 AM 19.4°F 15.8°F 86% 30.35 in 1.0 miles Calm Calm - N/A   Overcast
9:33 AM 19.4°F 17.6°F 93% 30.35 in 1.2 miles Calm Calm - N/A   Overcast
9:53 AM 19.9°F 16.0°F 85% 30.44 in 1.0 miles WSW 4.6 mph - N/A   Overcast
10:29 AM 21.2°F 15.8°F 80% 30.36 in 1.5 miles NNW 3.5 mph - N/A   Haze
10:53 AM 21.0°F 17.1°F 85% 30.44 in 1.2 miles South 4.6 mph - N/A   Overcast
11:01 AM 21.2°F 17.6°F 86% 30.36 in 0.8 miles Calm Calm - N/A   Overcast
11:13 AM 21.2°F 17.6°F 86% 30.36 in 1.2 miles Calm Calm - N/A   Overcast
11:24 AM 21.2°F 17.6°F 86% 30.35 in 2.5 miles Calm Calm - N/A   Overcast
11:33 AM 21.2°F 17.6°F 86% 30.35 in 4.0 miles Calm Calm - N/A   Overcast
11:53 AM 21.0°F 17.1°F 85% 30.43 in 4.0 miles SE 3.5 mph - N/A   Overcast
12:09 PM 21.2°F 17.6°F 86% 30.34 in 1.8 miles Calm Calm - N/A   Overcast
12:38 PM 21.2°F 17.6°F 86% 30.33 in 2.5 miles Calm Calm - N/A   Overcast
12:53 PM 21.0°F 17.1°F 85% 30.40 in 1.5 miles Calm Calm - N/A   Overcast
1:21 PM 21.2°F 17.6°F 86% 30.32 in 1.0 miles Calm Calm - N/A   Haze
1:28 PM 21.2°F 17.6°F 86% 30.31 in 1.8 miles Calm Calm - N/A   Haze
1:35 PM 21.2°F 17.6°F 86% 30.31 in 3.0 miles SSE 3.5 mph - N/A   Overcast
1:53 PM 21.0°F 17.1°F 85% 30.39 in 4.0 miles Calm Calm - N/A   Overcast
2:53 PM 21.9°F 18.0°F 85% 30.38 in 7.0 miles Calm Calm - N/A   Overcast
3:53 PM 21.9°F 17.1°F 82% 30.37 in 7.0 miles Calm Calm - N/A   Overcast
4:53 PM 21.9°F 18.0°F 85% 30.37 in 8.0 miles Calm Calm - N/A   Overcast
5:53 PM 21.9°F 18.0°F 85% 30.37 in 6.0 miles Calm Calm - N/A   Overcast
6:53 PM 21.9°F 17.1°F 82% 30.37 in 5.0 miles West 5.8 mph - N/A   Haze
7:53 PM 21.9°F 17.1°F 82% 30.37 in 2.5 miles WSW 4.6 mph - N/A   Haze
8:17 PM 21.2°F 17.6°F 86% 30.29 in 1.5 miles Calm Calm - N/A   Overcast
8:53 PM 21.0°F 18.0°F 88% 30.38 in 1.2 miles Calm Calm - N/A   Overcast
9:51 PM 21.2°F 17.6°F 86% 30.30 in 2.5 miles Calm Calm - N/A   Overcast
9:53 PM 21.0°F 17.1°F 85% 30.38 in 3.0 miles Calm Calm - N/A   Overcast
10:00 PM 21.2°F 17.6°F 86% 30.30 in 2.5 miles Calm Calm - N/A   Overcast
10:53 PM 21.0°F 17.1°F 85% 30.38 in 2.5 miles Calm Calm - N/A   Overcast
11:15 PM 21.2°F 17.6°F 86% 30.30 in 3.0 miles NW 5.8 mph - N/A   Overcast
11:53 PM 19.9°F 16.0°F 85% 30.38 in 4.0 miles Calm Calm - N/A   Overcast
Moon Phase
Jan. 21 Jan. 26 Feb. 03 Feb. 10 Feb. 17
Sunrise:07:38 AM (PST) Moon Rise:12:30 PM (PST)1/21
Sunset:04:48 PM (PST) Moon Set:03:12 AM (PST)1/21

Copyright © 2014 The Weather Underground, Inc.